Showing default

DRAGRACER 2(AUGURY), 46955

Orbit data source: Space-Track

DRAGRACER 2(AUGURY), 46955 is a payload satellite owned by TriSept (US) in SSO that was launched on Fri, 20 Nov 2020 UTC via an ELECTRON launch vehicle from the Rocket Lab Launch Complex (RLLC). Payload-class satellites include a variety of spacecraft equipped with specific instruments for various scientific and technological missions. These include communications satellites like Starlink; space stations such as the ISS; scientific satellites like the Hubble; Earth observation satellites from companies like Planet Labs, Umbra, and HawkEye 360; GPS; miniature CubeSats for education and research; and military/defense satellites.

Loading next visibility...
Identifier
46955, 2020-085AC
Orbit
SSO
Last TLE update
21 hours ago
Origin
Manufacturer
Millenium ES
Mission
Operational Commercial Technology
Bus & Motor
CUBESAT 6U, Unknown motor
Mass
12 kg wet, 12 kg dry
Launch date (UTC)
2020-11-20 (4 years ago)
Launch vehicle
ELECTRON
Launch site
Rocket Lab Launch Complex (RLLC)
Object type
Payload
Rocket body
Debris
Shape & HBR
Box, Unknown HBR
Radar Cross Section
0.080 m², Medium (>0.1 m² and < 1m²)

Expand to show TLE details & history

TLE from 21 hours ago
0 DRAGRACER 2(AUGURY)
1 46955U 20085AC  25128.39811819  .00016987  00000-0  31660-3 0  9992
2 46955  97.5769 293.3734 0006073 324.3750  35.7094 15.48880995248835
Epoch: 2025-05-08T09:33Z
Definitive object data (Epoch: 2025-05-08T09:33:17.411Z)
Latitude
-0.00005°
Longitude
-76.41833°
Altitude
419.771 km
Speed
7.661 km/s
True Right ascension
19h 33m 29s
True Declination
0° 00' 00"
Sunlit
Object was in full shadow at TLE epoch
Visualization TLE readout
Latitude
-75.90864°
Longitude
72.71072°
Altitude
445.49 km
Speed
7.645 km/s
Apparent Right ascension
03h 35m 41s
Apparent Declination
-59° 26' 51"
Sunlit
Object is in daylight
Visualization observer readout
Local Sidereal Time
14:58:14
Azimuth
193.725° SSW
Elevation
-69.597°
Doppler factor
1
Orbital elements
Apogee altitude
421.06 km
Perigee altitude
412.807 km
Semi-major axis
6,795.07 km
Eccentricity
0.0006073
Inclination
97.5769°
RAAN
293.3734°
Arg. of periapsis
324.375°
True anomaly
35.75004°
Mean anomaly
35.7094°
Eccentric anomaly
35.72972°
Mean motion
3.87483 °/min
BSTAR
0.0003166
Orbital period
92.91 mins
Loading maneuver chart data...
Loading SW <> Apogee altitude chart data...

DRAGRACER 2(AUGURY) Visibility forecast

Observer location: undefined°, undefined°

Span
Click to sort rows by Start time (UTC) header in descending order
Start Az.
Max El. time (UTC)
Max El. Az.
Max El.
End time (UTC)
End Az.
5 mins2025-05-09 10:30:20.204Z129.112° SE2025-05-09 10:32:20.204Z80.642° E26.282°2025-05-09 10:35:20.204Z10.046° NNE
|